パンスターズ彗星

P/2017 S8 ( PanSTARRS )

English version
Home page
Updated on October 30, 2017

---------------------------------------------------------------------

・ プロフィール

発見日 2017年9月30日
発見光度 20.2等
発見者 Pan-STARRS 1 telescope (Haleakala)

・ 軌道要素

Epoch 2018 Feb. 11.0 TT = JDT 2458160.5
T 2018 Jan. 28.64417 TT                                 MPCW
q   1.6834201            (2000.0)            P               Q
n   0.21292426     Peri.  254.54647     +0.08968550     -0.99073626
a   2.7774908      Node   191.81457     +0.99159020     +0.07923051
e   0.3939061      Incl.   29.87049     -0.09330267     -0.11029140
P   4.63
From 143 observations 2017 Sept. 25-Oct. 27, mean residual 0".6.

・ 光度変化

        m1 = 16.0 + 5 logΔ + 10.0 log r

---------------------------------------------------------------------

軌道要素はM.P.E.C. 2017-U236に掲載されたものです。
光度グラフはComet for Windowsで作成したものです。

---------------------------------------------------------------------

Copyright(C) Seiichi Yoshida (comet@aerith.net). All rights reserved.